Location: Bonn
(50.7330°N, 7.1000°E)
Time: 08:37:48
(UTC+02:00)

Daily predictions for brighter satellites

Satellite Brightness Start Highest point End
(mag) Time Altitude Azimuth Time Altitude Azimuth Time Altitude Azimuth
Cosmos 1741 Rocket 4.1 21:10:02 10° NNW 21:15:19 85° WSW 21:20:35 10° SSE
ERBS 2.3 21:14:16 10° SW 21:17:45 84° SE 21:21:14 10° ENE
ATLAS 2AS CENTAUR R/B 3.5 21:12:37 10° S 21:19:36 38° ESE 21:26:53 10° NE
Helios 1A 3.3 21:16:13 10° SE 21:20:20 51° ENE 21:24:29 10° N
Tiangong 1 3.2 21:19:21 10° SW 21:20:36 12° SSW 21:21:50 10° SSE
CZ-4B DEB 4.5 21:17:43 10° SSE 21:21:14 72° ENE 21:24:46 10° N
Cosmos 1655 Rocket 4.2 21:15:44 10° S 21:22:02 85° W 21:28:28 10° N
Envisat 3.2 21:17:25 10° SSE 21:22:30 80° WSW 21:27:37 10° NNW
Cosmos 1536 Rocket 3.7 21:18:37 10° NNW 21:22:57 78° W 21:27:17 10° S
Abrixas rocket 2.4 21:20:21 10° W 21:23:34 58° S 21:26:49 10° ESE
CENTAUR R/B 4.2 21:18:27 10° NW 21:24:58 34° NNE 21:32:08 10° ENE
Cosmos 1697 Rocket 4.2 21:20:27 10° WSW 21:25:46 41° NW 21:31:08 10° NNE
NOSS 3-1 (A) 3.9 21:20:20 10° SW 21:26:18 73° NW 21:33:10 10° NE
Meteor 2-4 Rocket 3.8 21:22:09 10° NNW 21:27:43 90° NW 21:33:25 10° S
NOSS 2-3 (E) 4.3 21:25:12 10° SSW 21:29:44 43° ESE 21:35:04 10° NE
H-2A R/B 3.3 21:26:04 10° ESE 21:30:02 24° ENE 21:33:58 10° N
Meteor 1-29 4.1 21:33:09 10° NE 21:36:02 24° E 21:38:51 10° SSE
Cosmos 1939 Rocket 3.0 21:32:28 10° S 21:36:26 75° WSW 21:40:22 10° NNW
Cosmos 1536 2.8 21:34:07 10° S 21:38:10 67° E 21:42:13 10° NNE
Cosmos 883 Rocket 4.5 21:33:01 10° N 21:39:10 78° E 21:45:19 10° SSE
MetOp-A 4.4 21:39:19 10° SE 21:44:30 52° ENE 21:49:43 10° N
ATLAS CENTAUR R/B 3.8 21:46:19 10° N 21:47:36 11° NNE 21:48:53 10° NNE
BREEZE-M DEB (TANK) 3.6 21:46:01 10° SW 21:49:25 44° SE 21:59:41 10° ENE
Cosmos 1110 Rocket 4.4 21:46:28 10° S 21:51:16 41° ESE 21:56:08 10° NE
SAR-Lupe-4 3.5 21:55:09 14° SSE 21:58:09 69° ENE 22:01:46 10° N
SPOT 5 3.3 21:56:36 16° SE 22:00:09 44° ENE 22:04:30 10° N
USA 215 4.0 21:54:26 10° ENE 22:00:47 55° N 22:07:09 10° W
Helios 1B rocket 2.4 21:58:29 10° NNE 22:02:35 64° ESE 22:06:39 10° S
NOSS 2-3 (C) 3.9 21:58:28 10° SSW 22:03:17 72° SE 22:09:07 10° NE
Lacrosse 5 2.1 21:58:40 10° SSW 22:03:27 44° SE 22:08:16 10° ENE
Cosmos 1331 Rocket 4.2 21:59:37 10° S 22:04:34 47° ESE 22:09:35 10° NNE
SeaSat 1 2.4 22:00:44 10° NNE 22:05:43 84° ESE 22:10:40 10° SSW
ARGOS 3.2 22:03:48 15° SSE 22:08:16 66° ENE 22:13:37 10° N
NOSS 3-2 (A) 4.1 22:02:40 10° NW 22:09:55 71° NE 22:16:05 18° SE
Cosmos 1455 Rocket 4.2 22:08:42 20° ESE 22:10:26 26° E 22:14:10 10° NNE
CZ-4B DEB 3.0 22:08:22 14° S 22:10:40 57° WSW 22:13:32 10° NNW
BREEZE-M DEB (TANK) 1.7 22:09:40 10° SW 22:11:50 32° SSE 22:11:50 32° SSE
USA 238 DEB 3.9 22:04:56 10° NW 22:12:02 78° SW 22:17:38 18° SSE
USA 238 3.9 22:05:02 10° NW 22:12:08 79° SW 22:17:43 18° SSE
Cosmos 2263 Rocket 3.5 22:07:07 10° NW 22:12:20 37° WSW 22:17:31 10° S
SL-8 R/B 4.2 22:09:05 10° W 22:13:39 45° SSW 22:16:23 22° SE
Cosmos 405 3.8 22:12:40 25° SE 22:13:59 33° E 22:17:16 10° NNE
SAR-Lupe-1 4.0 22:12:31 19° SSE 22:15:02 90° WSW 22:18:39 10° NNW
Cosmos 2278 Rocket 3.2 22:10:27 10° NNW 22:15:37 34° NE 22:19:18 17° ESE
Cosmos 1844 Rocket 2.8 22:14:05 10° NNW 22:19:48 71° ENE 22:23:30 22° SE
SL-08 RB Rocket 3.7 22:17:04 21° SSE 22:20:03 65° ENE 22:24:34 10° N
Cosmos 1666 4.4 22:20:11 18° E 22:20:14 18° E 22:22:51 10° NE
Cosmos 2266 Rocket 4.3 22:14:34 10° SSW 22:20:34 68° WNW 22:26:38 10° N
Cosmos 2322 Rocket 2.8 22:15:15 10° SW 22:20:54 62° WNW 22:26:34 10° NNE
Cosmos 2315 Rocket 4.2 22:15:45 10° NNW 22:21:58 72° W 22:28:13 10° S
Cosmos 2237 4.4 22:21:09 10° S 22:26:35 48° ESE 22:32:02 10° NE
ATLAS 3B R/B 3.0 22:20:43 10° NW 22:27:22 58° SW 22:32:09 18° SSE
Molniya-1 3.7 22:24:52 10° NW 22:27:25 66° SW 22:28:34 35° SSE
Landsat 7 4.4 22:25:31 25° ESE 22:27:54 43° ENE 22:32:24 10° N
Cosmos 1025 Rocket 3.8 22:24:18 10° NNW 22:28:26 48° W 22:32:31 10° SSW
Okean 1 Rocket 3.7 22:24:21 10° SSW 22:28:38 56° WNW 22:32:59 10° N
Cosmos 1818 4.3 22:28:24 22° SSE 22:30:35 30° ESE 22:35:16 10° ENE
SPOT 1/Viking Rocket 3.6 22:28:06 23° SE 22:31:19 66° ENE 22:36:30 10° N
Cosmos 724 4.3 22:25:32 10° NW 22:31:29 74° NE 22:34:56 26° SE
Nadezhda 2 Rocket 4.5 22:26:07 10° S 22:32:18 88° W 22:38:37 10° N
Okean 2 4.2 22:28:51 10° NNW 22:32:49 48° W 22:36:19 13° SSW
SL-16 R/B 3.1 22:27:27 10° SW 22:32:59 52° NW 22:38:34 10° NNE
BREEZE M DEB (TANK) 3.0 22:25:55 10° W 22:33:25 77° S 22:34:52 31° ESE
Cosmos 1743 3.5 22:35:51 31° ESE 22:36:13 32° E 22:39:39 10° NNE
MetOp-B 4.4 22:34:02 15° S 22:38:27 65° WSW 22:43:49 10° NNW
Cosmos 2219 Rocket 3.1 22:37:49 26° ESE 22:38:54 28° ESE 22:43:39 10° NE
Meteor 1-12 Rocket 4.3 22:35:17 20° SSE 22:39:10 57° E 22:44:42 10° NNE
Cosmos 1503 Rocket 4.2 22:34:04 10° NNW 22:39:27 65° ENE 22:42:09 29° SE
NOSS 2-3 (D) 4.4 22:38:20 10° SW 22:43:14 70° NW 22:49:12 10° NE
Terra 2.4 22:41:21 29° ESE 22:43:14 43° ENE 22:47:45 10° N
CARTOSAT-1 4.2 22:42:00 31° ESE 22:43:25 41° ENE 22:47:29 10° N
Cosmos 2322 3.6 22:38:16 10° SSW 22:43:55 78° ESE 22:49:38 10° NNE
YAOGAN 11 4.1 22:46:28 29° S 22:48:39 80° WSW 22:52:59 10° NNW
NOSS 3-2 (C) 4.0 22:41:33 10° NW 22:48:54 85° NE 22:53:45 27° SE
Cosmos 1602 Rocket 3.9 22:45:55 10° N 22:50:08 46° ENE 22:51:15 37° ESE
Cosmos 1745 Rocket 4.0 22:47:16 25° SSE 22:50:49 58° E 22:56:51 10° NNE
ERS-1 Rocket 4.0 22:46:38 12° SSW 22:50:57 43° W 22:55:46 10° NNW
Cosmos 2360 Rocket 2.3 22:47:57 10° SW 22:53:36 78° WNW 22:59:16 10° NNE
COSMOS 2428 2.8 22:50:11 16° S 22:54:36 56° ESE 23:00:13 10° NE
ERBS 4.1 22:51:30 10° W 22:54:42 32° NNW 22:57:53 10° NE
Cosmos 1975 2.7 22:53:20 29° S 22:55:17 89° WNW 22:59:18 10° N
H-2A R/B 3.1 22:55:20 28° E 22:56:24 32° ENE 23:00:20 10° N
Cosmos 1844 3.7 22:51:47 10° NNW 22:57:29 83° WSW 23:00:13 33° SSE
Abrixas rocket 3.3 22:57:00 10° W 22:59:31 32° SW 22:59:31 32° SW
USA 245 4.4 22:59:05 21° SSW 23:02:02 49° WSW 23:05:58 10° NNW
Cosmos 2333 Rocket 2.7 23:07:14 36° SE 23:07:55 37° ESE 23:13:05 10° NE
H-2A R/B 2.3 23:06:28 27° S 23:09:08 59° WSW 23:14:03 10° NNW
ATLAS 2AS CENTAUR R/B 3.3 23:02:18 10° SW 23:10:13 74° NW 23:18:25 10° NE
Cosmos 1500 4.3 23:07:21 16° SW 23:10:13 44° WNW 23:13:58 10° N
Cosmos 1626 Rocket 3.4 23:09:42 10° N 23:14:04 85° E 23:15:00 54° SSE
COSMOS 2455 3.7 23:08:50 10° NNW 23:14:31 41° NE 23:17:36 24° E
Spot 4 4.4 23:13:57 37° ESE 23:15:03 44° ENE 23:19:34 10° N
Cosmos 2333 4.1 23:11:18 20° SSW 23:15:15 72° ESE 23:20:52 10° NNE
Cosmos 1386 Rocket 4.5 23:12:19 32° SSE 23:15:17 69° E 23:21:35 10° NNE
CENTAUR R/B 3.3 23:09:31 10° NW 23:17:04 65° NE 23:21:53 27° ESE
NOSS 3-4 (A) 3.8 23:19:25 38° SSE 23:20:38 43° ESE 23:26:43 10° NE
NOSS 3-4 (C) 3.8 23:19:36 39° SSE 23:20:45 42° ESE 23:26:50 10° NE
EXPRESS MD2 3.8 23:17:40 10° W 23:21:22 83° S 23:29:09 10° E
Cosmos 2369 Rocket 4.5 23:18:07 10° N 23:21:42 17° NNE 23:25:16 10° ENE
Cosmos 1241 Rocket 4.4 23:17:46 10° SSW 23:24:18 77° SE 23:30:47 10° NE
Cosmos 1302 Rocket 4.2 23:19:12 10° SSW 23:24:23 71° WNW 23:29:41 10° NNE
Cosmos 2237 Rocket 2.8 23:25:16 35° ESE 23:25:16 35° ESE 23:30:11 10° NE
Cosmos 1992 Rocket 4.2 23:26:07 46° ESE 23:26:29 47° ESE 23:31:29 10° NNE
ATLAS CENTAUR R/B 2.5 23:24:25 10° NNW 23:27:43 30° NE 23:28:18 28° NE
Cosmos 968 Rocket 3.5 23:26:19 10° NNW 23:31:26 66° ENE 23:32:33 51° ESE
Cosmos 1980 4.1 23:31:18 42° ESE 23:31:31 42° ESE 23:36:51 10° NE
Cosmos 1437 Rocket 3.0 23:32:58 53° SW 23:33:42 68° WNW 23:37:39 10° N
Nadezhda 1 Rocket 4.4 23:29:49 10° NNW 23:36:01 60° W 23:39:16 29° SSW
CZ-4C R/B 4.3 23:36:58 33° NE 23:36:58 33° NE 23:39:38 10° N
Cosmos 1825 Rocket 3.8 23:33:03 10° N 23:37:17 51° ENE 23:37:21 50° E
CZ-4 R/B 4.3 23:33:34 10° NNE 23:37:55 42° E 23:37:55 42° E
SPOT 5 4.4 23:35:52 18° SW 23:38:22 27° W 23:42:20 10° NW
GP-B 3.1 23:34:57 10° N 23:39:24 78° W 23:40:10 60° SSW
Timation 1 Rocket 4.4 23:36:14 10° NW 23:42:12 68° WSW 23:43:56 46° S
Meteor 1-4 Rocket 3.6 23:43:48 39° NE 23:43:48 39° NE 23:46:31 10° NNE
USA 215 3.8 23:37:01 10° E 23:43:19 56° NNE 23:49:42 10° WNW
IGS 5A 3.8 23:43:47 51° SW 23:44:15 55° W 23:48:22 10° NNW
Lacrosse 5 2.3 23:41:18 10° WSW 23:46:21 62° NNW 23:51:25 10° ENE
RESURS DK-1 4.3 23:48:46 18° ENE 23:48:46 18° ENE 23:50:12 10° NE
Cosmos 2297 3.9 23:41:16 10° NNW 23:46:55 63° ENE 23:48:19 48° ESE
Cosmos 1455 Rocket 4.3 23:45:47 22° SW 23:48:07 39° WNW 23:52:20 10° N
TRAILBLAZER 4.5 23:45:49 10° NW 23:50:30 89° NE 23:50:48 78° SE
Cosmos 1707 3.9 23:49:10 10° N 23:52:10 35° NE 23:52:10 35° NE
Cosmos 1758 Rocket 3.8 23:48:42 10° N 23:52:50 55° ENE 23:52:50 55° ENE
Cosmos 1666 3.5 23:55:07 43° W 23:55:34 45° WNW 23:59:19 10° N
